TimeMST,TemperatureF,Dew PointF,Humidity,Sea Level PressureIn,VisibilityMPH,Wind Direction,Wind SpeedMPH,Gust SpeedMPH,PrecipitationIn,Events,Conditions,WindDirDegrees,DateUTC
12:53 AM,21.0,12.0,68,29.63,10.0,West,16.1,-,N/A,,Mostly Cloudy,280,2012-12-18 07:53:00
1:53 AM,21.0,12.0,68,29.64,10.0,WNW,21.9,-,N/A,,Mostly Cloudy,290,2012-12-18 08:53:00
2:53 AM,21.0,10.0,63,29.65,10.0,WNW,25.3,33.4,N/A,,Clear,290,2012-12-18 09:53:00
3:53 AM,21.0,9.0,60,29.66,10.0,WNW,27.6,33.4,N/A,,Clear,290,2012-12-18 10:53:00
5:53 AM,15.1,6.1,68,29.78,10.0,WSW,8.1,-,N/A,,Clear,250,2012-12-18 12:53:00
6:53 AM,12.0,5.0,73,29.80,10.0,WSW,10.4,-,N/A,,Scattered Clouds,240,2012-12-18 13:53:00
7:53 AM,14.0,6.1,71,29.78,10.0,SW,6.9,-,N/A,,Overcast,230,2012-12-18 14:53:00
8:53 AM,19.0,7.0,59,29.81,10.0,WSW,12.7,-,N/A,,Overcast,250,2012-12-18 15:53:00
9:53 AM,19.9,8.1,60,29.81,10.0,SW,11.5,-,N/A,,Overcast,230,2012-12-18 16:53:00
10:53 AM,21.9,9.0,58,29.78,10.0,WSW,18.4,-,N/A,,Overcast,240,2012-12-18 17:53:00
11:53 AM,24.1,10.0,55,29.75,10.0,WSW,16.1,-,N/A,,Overcast,240,2012-12-18 18:53:00
12:53 PM,23.0,10.9,60,29.76,10.0,WSW,18.4,-,N/A,,Overcast,240,2012-12-18 19:53:00
1:53 PM,23.0,10.0,58,29.76,10.0,WSW,17.3,-,N/A,,Overcast,250,2012-12-18 20:53:00
2:53 PM,21.9,10.9,63,29.75,10.0,West,6.9,-,N/A,,Overcast,260,2012-12-18 21:53:00
3:53 PM,21.9,10.0,60,29.73,10.0,WNW,4.6,-,N/A,,Overcast,290,2012-12-18 22:53:00
4:53 PM,21.0,8.1,57,29.74,10.0,NW,4.6,-,N/A,,Overcast,320,2012-12-18 23:53:00
5:53 PM,19.9,9.0,62,29.77,8.0,North,4.6,-,N/A,,Overcast,10,2012-12-19 00:53:00
6:20 PM,19.4,12.2,74,29.65,3.0,NW,3.5,-,0.00,Snow,Light Snow,320,2012-12-19 01:20:00
6:29 PM,19.4,12.2,74,29.65,2.0,NNW,4.6,-,0.00,Snow,Light Snow,330,2012-12-19 01:29:00
6:37 PM,17.6,14.0,86,29.65,1.2,NW,6.9,-,0.00,Snow,Light Snow,320,2012-12-19 01:37:00
6:53 PM,18.0,15.1,88,29.81,1.5,NNW,6.9,-,0.00,Snow,Light Snow,340,2012-12-19 01:53:00
7:23 PM,17.6,15.8,93,29.64,3.0,NNW,3.5,-,0.00,Snow,Light Snow,340,2012-12-19 02:23:00
7:43 PM,17.6,14.0,86,29.64,1.8,North,3.5,-,0.00,Snow,Light Snow,350,2012-12-19 02:43:00
7:53 PM,17.1,15.1,92,29.79,1.0,North,3.5,-,0.01,Snow,Light Snow,350,2012-12-19 02:53:00
7:58 PM,17.6,15.8,93,29.64,0.8,North,3.5,-,0.00,Snow,Light Snow,360,2012-12-19 02:58:00
8:05 PM,17.6,15.8,93,29.64,1.0,NNW,4.6,-,0.00,Snow,Light Snow,330,2012-12-19 03:05:00
8:53 PM,17.1,14.0,88,29.77,1.2,NNE,3.5,-,0.01,Snow,Light Snow,20,2012-12-19 03:53:00
9:53 PM,16.0,12.9,88,29.76,1.0,North,9.2,-,0.01,Snow,Light Snow,360,2012-12-19 04:53:00
10:44 PM,15.8,12.2,86,29.65,0.8,NNE,10.4,-,0.01,Snow,Light Snow,30,2012-12-19 05:44:00
10:53 PM,15.1,12.9,91,29.76,0.5,NNE,8.1,-,0.02,Fog-Snow,Snow,30,2012-12-19 05:53:00
11:04 PM,15.8,12.2,86,29.64,0.8,NNE,8.1,-,0.00,Snow,Light Snow,30,2012-12-19 06:04:00
11:09 PM,15.8,12.2,86,29.64,1.0,NNE,8.1,-,0.00,Snow,Light Snow,30,2012-12-19 06:09:00
11:53 PM,15.1,12.0,88,29.73,0.8,NNE,10.4,-,0.01,Snow,Light Snow,20,2012-12-19 06:53:00